Year,Month,Day,Hour,Minute,Value (Times are PST for temperature in C)
2018,07,03,00,00,13.50
2018,07,03,00,01,13.40
2018,07,03,00,02,13.40
2018,07,03,00,03,13.40
2018,07,03,00,04,13.40
2018,07,03,00,05,13.50
2018,07,03,00,06,13.50
2018,07,03,00,07,13.40
2018,07,03,00,08,13.40
2018,07,03,00,09,13.30
2018,07,03,00,10,13.30
2018,07,03,00,11,13.30
2018,07,03,00,12,13.30
2018,07,03,00,13,13.30
2018,07,03,00,14,13.30
2018,07,03,00,15,13.30
2018,07,03,00,16,13.30
2018,07,03,00,17,13.30
2018,07,03,00,18,13.30
2018,07,03,00,19,13.30
2018,07,03,00,20,13.30
2018,07,03,00,21,13.30
2018,07,03,00,22,13.30
2018,07,03,00,23,13.30
2018,07,03,00,24,13.30
2018,07,03,00,25,13.30
2018,07,03,00,26,13.30
2018,07,03,00,27,13.30
2018,07,03,00,28,13.30
2018,07,03,00,29,13.30
2018,07,03,00,30,13.20
2018,07,03,00,31,13.20
2018,07,03,00,32,13.20
2018,07,03,00,33,13.10
2018,07,03,00,34,13.00
2018,07,03,00,35,13.00
2018,07,03,00,36,13.00
2018,07,03,00,37,13.00
2018,07,03,00,38,13.10
2018,07,03,00,39,13.10
2018,07,03,00,40,13.10
2018,07,03,00,41,13.10
2018,07,03,00,42,13.10
2018,07,03,00,43,13.20
2018,07,03,00,44,13.20
2018,07,03,00,45,13.20
2018,07,03,00,46,13.20
2018,07,03,00,47,13.10
2018,07,03,00,48,13.10
2018,07,03,00,49,13.00
2018,07,03,00,50,12.90
2018,07,03,00,51,12.90
2018,07,03,00,52,12.90
2018,07,03,00,53,12.90
2018,07,03,00,54,12.90
2018,07,03,00,55,12.90
2018,07,03,00,56,12.90
2018,07,03,00,57,12.80
2018,07,03,00,58,12.80
2018,07,03,00,59,12.80
2018,07,03,01,00,12.80
2018,07,03,01,01,12.80
2018,07,03,01,02,12.80
2018,07,03,01,03,12.90
2018,07,03,01,04,12.80
2018,07,03,01,05,12.80
2018,07,03,01,06,12.80
2018,07,03,01,07,12.80
2018,07,03,01,08,12.80
2018,07,03,01,09,12.80
2018,07,03,01,10,12.80
2018,07,03,01,11,12.80
2018,07,03,01,12,12.80
2018,07,03,01,13,12.80
2018,07,03,01,14,12.80
2018,07,03,01,15,12.80
2018,07,03,01,16,12.80
2018,07,03,01,17,12.70
2018,07,03,01,18,12.60
2018,07,03,01,19,12.60
2018,07,03,01,20,12.60
2018,07,03,01,21,12.60
2018,07,03,01,22,12.60
2018,07,03,01,23,12.60
2018,07,03,01,24,12.50
2018,07,03,01,25,12.50
2018,07,03,01,26,12.50
2018,07,03,01,27,12.50
2018,07,03,01,28,12.40
2018,07,03,01,29,12.40
2018,07,03,01,30,12.40
2018,07,03,01,31,12.40
2018,07,03,01,32,12.40
2018,07,03,01,33,12.50
2018,07,03,01,34,12.50
2018,07,03,01,35,12.50
2018,07,03,01,36,12.60
2018,07,03,01,37,12.60
2018,07,03,01,38,12.70
2018,07,03,01,39,12.70
2018,07,03,01,40,12.80
2018,07,03,01,41,12.90
2018,07,03,01,42,13.00
2018,07,03,01,43,13.00
2018,07,03,01,44,13.00
2018,07,03,01,45,13.00
2018,07,03,01,46,13.00
2018,07,03,01,47,13.00
2018,07,03,01,48,13.00
2018,07,03,01,49,13.00
2018,07,03,01,50,13.00
2018,07,03,01,51,13.00
2018,07,03,01,52,13.00
2018,07,03,01,53,13.00
2018,07,03,01,54,13.00
2018,07,03,01,55,13.10
2018,07,03,01,56,13.10
2018,07,03,01,57,13.10
2018,07,03,01,58,13.10
2018,07,03,01,59,13.20
2018,07,03,02,00,13.20
2018,07,03,02,01,13.20
2018,07,03,02,02,13.10
2018,07,03,02,03,13.10
2018,07,03,02,04,13.20
2018,07,03,02,05,13.20
2018,07,03,02,06,13.30
2018,07,03,02,07,13.30
2018,07,03,02,08,13.20
2018,07,03,02,09,13.20
2018,07,03,02,10,13.20
2018,07,03,02,11,13.20
2018,07,03,02,12,13.10
2018,07,03,02,13,13.20
2018,07,03,02,14,13.40
2018,07,03,02,15,13.40
2018,07,03,02,16,13.30
2018,07,03,02,17,13.30
2018,07,03,02,18,13.30
2018,07,03,02,19,13.20
2018,07,03,02,20,13.10
2018,07,03,02,21,13.00
2018,07,03,02,22,13.00
2018,07,03,02,23,13.00
2018,07,03,02,24,13.00
2018,07,03,02,25,13.00
2018,07,03,02,26,13.00
2018,07,03,02,27,13.00
2018,07,03,02,28,13.10
2018,07,03,02,29,13.00
2018,07,03,02,30,13.00
2018,07,03,02,31,13.00
2018,07,03,02,32,13.00
2018,07,03,02,33,13.00
2018,07,03,02,34,13.00
2018,07,03,02,35,12.90
2018,07,03,02,36,13.00
2018,07,03,02,37,13.10
2018,07,03,02,38,13.10
2018,07,03,02,39,13.10
2018,07,03,02,40,13.10
2018,07,03,02,41,13.10
2018,07,03,02,42,13.10
2018,07,03,02,43,13.00
2018,07,03,02,44,13.00
2018,07,03,02,45,13.00
2018,07,03,02,46,12.90
2018,07,03,02,47,12.90
2018,07,03,02,48,12.80
2018,07,03,02,49,12.80
2018,07,03,02,50,12.80
2018,07,03,02,51,12.80
2018,07,03,02,52,12.80
2018,07,03,02,53,12.80
2018,07,03,02,54,12.70
2018,07,03,02,55,12.70
2018,07,03,02,56,12.70
2018,07,03,02,57,12.80
2018,07,03,02,58,12.80
2018,07,03,02,59,12.80
2018,07,03,03,00,12.80
2018,07,03,03,01,12.90
2018,07,03,03,02,12.90
2018,07,03,03,03,12.80
2018,07,03,03,04,12.70
2018,07,03,03,05,12.60
2018,07,03,03,06,12.40
2018,07,03,03,07,12.30
2018,07,03,03,08,12.20
2018,07,03,03,09,12.10
2018,07,03,03,10,12.10
2018,07,03,03,11,12.20
2018,07,03,03,12,12.20
2018,07,03,03,13,12.20
2018,07,03,03,14,12.20
2018,07,03,03,15,12.10
2018,07,03,03,16,12.10
2018,07,03,03,17,12.10
2018,07,03,03,18,12.10
2018,07,03,03,19,12.10
2018,07,03,03,20,12.10
2018,07,03,03,21,12.10
2018,07,03,03,22,12.10
2018,07,03,03,23,12.20
2018,07,03,03,24,12.20
2018,07,03,03,25,12.20
2018,07,03,03,26,12.20
2018,07,03,03,27,12.20
2018,07,03,03,28,12.20
2018,07,03,03,29,12.10
2018,07,03,03,30,12.10
2018,07,03,03,31,12.20
2018,07,03,03,32,12.20
2018,07,03,03,33,12.20
2018,07,03,03,34,12.20
2018,07,03,03,35,12.30
2018,07,03,03,36,12.30
2018,07,03,03,37,12.30
2018,07,03,03,38,12.30
2018,07,03,03,39,12.30
2018,07,03,03,40,12.30
2018,07,03,03,41,12.30
2018,07,03,03,42,12.30
2018,07,03,03,43,12.30
2018,07,03,03,44,12.40
2018,07,03,03,45,12.40
2018,07,03,03,46,12.40
2018,07,03,03,47,12.40
2018,07,03,03,48,12.40
2018,07,03,03,49,12.40
2018,07,03,03,50,12.40
2018,07,03,03,51,12.40
2018,07,03,03,52,12.30
2018,07,03,03,53,12.30
2018,07,03,03,54,12.40
2018,07,03,03,55,12.50
2018,07,03,03,56,12.70
2018,07,03,03,57,12.70
2018,07,03,03,58,12.70
2018,07,03,03,59,12.80
2018,07,03,04,00,12.70
2018,07,03,04,01,12.70
2018,07,03,04,02,12.60
2018,07,03,04,03,12.60
2018,07,03,04,04,12.60
2018,07,03,04,05,12.50
2018,07,03,04,06,12.50
2018,07,03,04,07,12.40
2018,07,03,04,08,12.40
2018,07,03,04,09,12.30
2018,07,03,04,10,12.30
2018,07,03,04,11,12.30
2018,07,03,04,12,12.30
2018,07,03,04,13,12.30
2018,07,03,04,14,12.30
2018,07,03,04,15,12.30
2018,07,03,04,16,12.30
2018,07,03,04,17,12.30
2018,07,03,04,18,12.30
2018,07,03,04,19,12.30
2018,07,03,04,20,12.40
2018,07,03,04,21,12.40
2018,07,03,04,22,12.40
2018,07,03,04,23,12.40
2018,07,03,04,24,12.20
2018,07,03,04,25,12.20
2018,07,03,04,26,12.20
2018,07,03,04,27,12.10
2018,07,03,04,28,12.00
2018,07,03,04,29,12.00
2018,07,03,04,30,12.00
2018,07,03,04,31,12.10
2018,07,03,04,32,12.00
2018,07,03,04,33,12.10
2018,07,03,04,34,12.00
2018,07,03,04,35,12.00
2018,07,03,04,36,11.90
2018,07,03,04,37,11.90
2018,07,03,04,38,11.90
2018,07,03,04,39,11.90
2018,07,03,04,40,11.90
2018,07,03,04,41,11.90
2018,07,03,04,42,11.90
2018,07,03,04,43,12.00
2018,07,03,04,44,12.00
2018,07,03,04,45,11.90
2018,07,03,04,46,11.90
2018,07,03,04,47,11.90
2018,07,03,04,48,11.90
2018,07,03,04,49,12.00
2018,07,03,04,50,12.00
2018,07,03,04,51,12.00
2018,07,03,04,52,12.00
2018,07,03,04,53,12.00
2018,07,03,04,54,12.00
2018,07,03,04,55,12.00
2018,07,03,04,56,12.00
2018,07,03,04,57,12.00
2018,07,03,04,58,11.90
2018,07,03,04,59,11.90
2018,07,03,05,00,11.90
2018,07,03,05,01,11.90
2018,07,03,05,02,11.90
2018,07,03,05,03,11.90
2018,07,03,05,04,11.90
2018,07,03,05,05,11.90
2018,07,03,05,06,11.80
2018,07,03,05,07,11.80
2018,07,03,05,08,11.80
2018,07,03,05,09,11.70
2018,07,03,05,10,11.70
2018,07,03,05,11,11.70
2018,07,03,05,12,11.70
2018,07,03,05,13,11.70
2018,07,03,05,14,11.70
2018,07,03,05,15,11.70
2018,07,03,05,16,11.70
2018,07,03,05,17,11.70
2018,07,03,05,18,11.70
2018,07,03,05,19,11.70
2018,07,03,05,20,11.70
2018,07,03,05,21,11.70
2018,07,03,05,22,11.70
2018,07,03,05,23,11.70
2018,07,03,05,24,11.70
2018,07,03,05,25,11.70
2018,07,03,05,26,11.70
2018,07,03,05,27,11.60
2018,07,03,05,28,11.60
2018,07,03,05,29,11.60
2018,07,03,05,30,11.60
2018,07,03,05,31,11.60
2018,07,03,05,32,11.60
2018,07,03,05,33,11.60
2018,07,03,05,34,11.60
2018,07,03,05,35,11.60
2018,07,03,05,36,11.60
2018,07,03,05,37,11.50
2018,07,03,05,38,11.50
2018,07,03,05,39,11.50
2018,07,03,05,40,11.40
2018,07,03,05,41,11.40
2018,07,03,05,42,11.40
2018,07,03,05,43,11.40
2018,07,03,05,44,11.40
2018,07,03,05,45,11.40
2018,07,03,05,46,11.40
2018,07,03,05,47,11.30
2018,07,03,05,48,11.30
2018,07,03,05,49,11.30
2018,07,03,05,50,11.30
2018,07,03,05,51,11.30
2018,07,03,05,52,11.40
2018,07,03,05,53,11.40
2018,07,03,05,54,11.60
2018,07,03,05,55,11.70
2018,07,03,05,56,11.80
2018,07,03,05,57,11.90
2018,07,03,05,58,11.90
2018,07,03,05,59,12.00
2018,07,03,06,00,12.10
2018,07,03,06,01,12.10
2018,07,03,06,02,12.10
2018,07,03,06,03,12.10
2018,07,03,06,04,12.10
2018,07,03,06,05,12.10
2018,07,03,06,06,12.10
2018,07,03,06,07,12.10
2018,07,03,06,08,12.00
2018,07,03,06,09,11.90
2018,07,03,06,10,11.90
2018,07,03,06,11,11.90
2018,07,03,06,12,11.90
2018,07,03,06,13,11.90
2018,07,03,06,14,11.80
2018,07,03,06,15,11.80
2018,07,03,06,16,11.80
2018,07,03,06,17,11.80
2018,07,03,06,18,11.80
2018,07,03,06,19,11.70
2018,07,03,06,20,11.70
2018,07,03,06,21,11.70
2018,07,03,06,22,11.70
2018,07,03,06,23,11.60
2018,07,03,06,24,11.70
2018,07,03,06,25,11.60
2018,07,03,06,26,11.60
2018,07,03,06,27,11.60
2018,07,03,06,28,11.70
2018,07,03,06,29,11.70
2018,07,03,06,30,11.70
2018,07,03,06,31,11.70
2018,07,03,06,32,11.70
2018,07,03,06,33,11.70
2018,07,03,06,34,11.60
2018,07,03,06,35,11.60
2018,07,03,06,36,11.50
2018,07,03,06,37,11.50
2018,07,03,06,38,11.50
2018,07,03,06,39,11.50
2018,07,03,06,40,11.50
2018,07,03,06,41,11.50
2018,07,03,06,42,11.50
2018,07,03,06,43,11.60
2018,07,03,06,44,11.60
2018,07,03,06,45,11.60
2018,07,03,06,46,11.70
2018,07,03,06,47,11.70
2018,07,03,06,48,11.70
2018,07,03,06,49,11.70
2018,07,03,06,50,11.70
2018,07,03,06,51,11.70
2018,07,03,06,52,11.70
2018,07,03,06,53,11.70
2018,07,03,06,54,11.70
2018,07,03,06,55,11.70
2018,07,03,06,56,11.70
2018,07,03,06,57,11.60
2018,07,03,06,58,11.60
2018,07,03,06,59,11.60
2018,07,03,07,00,11.60
2018,07,03,07,01,11.50
2018,07,03,07,02,11.50
2018,07,03,07,03,11.50
2018,07,03,07,04,11.40
2018,07,03,07,05,11.40
2018,07,03,07,06,11.30
2018,07,03,07,07,11.20
2018,07,03,07,08,11.20
2018,07,03,07,09,11.10
2018,07,03,07,10,11.10
2018,07,03,07,11,11.00
2018,07,03,07,12,10.90
2018,07,03,07,13,10.90
2018,07,03,07,14,10.90
2018,07,03,07,15,10.90
2018,07,03,07,16,10.90
2018,07,03,07,17,10.90
2018,07,03,07,18,10.90
2018,07,03,07,19,10.90
2018,07,03,07,20,10.90
2018,07,03,07,21,10.90
2018,07,03,07,22,10.90
2018,07,03,07,23,10.90
2018,07,03,07,24,10.90
2018,07,03,07,25,10.90
2018,07,03,07,26,10.90
2018,07,03,07,27,10.90
2018,07,03,07,28,10.90
2018,07,03,07,29,10.90
2018,07,03,07,30,10.90
2018,07,03,07,31,10.90
2018,07,03,07,32,10.90
2018,07,03,07,33,10.90
2018,07,03,07,34,10.90
2018,07,03,07,35,10.90
2018,07,03,07,36,10.90
2018,07,03,07,37,10.90
2018,07,03,07,38,10.90
2018,07,03,07,39,10.90
2018,07,03,07,40,10.90
2018,07,03,07,41,10.90
2018,07,03,07,42,10.90
2018,07,03,07,43,10.90
2018,07,03,07,44,10.90
2018,07,03,07,45,10.90
2018,07,03,07,46,10.90
2018,07,03,07,47,10.90
2018,07,03,07,48,10.90
2018,07,03,07,49,10.90
2018,07,03,07,50,10.90
2018,07,03,07,51,10.90
2018,07,03,07,52,10.90
2018,07,03,07,53,10.90
2018,07,03,07,54,10.90
2018,07,03,07,55,10.90
2018,07,03,07,56,10.80
2018,07,03,07,57,10.80
2018,07,03,07,58,10.80
2018,07,03,07,59,10.80
2018,07,03,08,00,10.80
2018,07,03,08,01,10.80
2018,07,03,08,02,10.80
2018,07,03,08,03,10.80
2018,07,03,08,04,10.80
2018,07,03,08,05,10.80
2018,07,03,08,06,10.80
2018,07,03,08,07,10.80
2018,07,03,08,08,10.80
2018,07,03,08,09,10.80
2018,07,03,08,10,10.80
2018,07,03,08,11,10.80
2018,07,03,08,12,10.80
2018,07,03,08,13,10.80
2018,07,03,08,14,10.80
2018,07,03,08,15,10.80
2018,07,03,08,16,10.80
2018,07,03,08,17,10.80
2018,07,03,08,18,10.80
2018,07,03,08,19,10.80
2018,07,03,08,20,10.80
2018,07,03,08,21,10.80
2018,07,03,08,22,10.80
2018,07,03,08,23,10.80
2018,07,03,08,24,10.80
2018,07,03,08,25,10.80
2018,07,03,08,26,10.80
2018,07,03,08,27,10.80
2018,07,03,08,28,10.80
2018,07,03,08,29,10.80
2018,07,03,08,30,10.80
2018,07,03,08,31,10.80
2018,07,03,08,32,10.80
2018,07,03,08,33,10.80
2018,07,03,08,34,10.80
2018,07,03,08,35,10.80
2018,07,03,08,36,10.80
2018,07,03,08,37,10.80
2018,07,03,08,38,10.80
2018,07,03,08,39,10.80
2018,07,03,08,40,10.80
2018,07,03,08,41,10.80
2018,07,03,08,42,10.80
2018,07,03,08,43,10.80
2018,07,03,08,44,10.80
2018,07,03,08,45,10.80
2018,07,03,08,46,10.80
2018,07,03,08,47,10.80
2018,07,03,08,48,10.80
2018,07,03,08,49,10.80
2018,07,03,08,50,10.80
2018,07,03,08,51,10.80
2018,07,03,08,52,10.80
2018,07,03,08,53,10.80
2018,07,03,08,54,10.80
2018,07,03,08,55,10.80
2018,07,03,08,56,10.80
2018,07,03,08,57,10.80
2018,07,03,08,58,10.80
2018,07,03,08,59,10.80
2018,07,03,09,00,10.80
2018,07,03,09,01,10.80
2018,07,03,09,02,10.80
2018,07,03,09,03,10.80
2018,07,03,09,04,10.80
2018,07,03,09,05,10.80
2018,07,03,09,06,10.80
2018,07,03,09,07,10.80
2018,07,03,09,08,10.80
2018,07,03,09,09,10.80
2018,07,03,09,10,10.80
2018,07,03,09,11,10.80
2018,07,03,09,12,10.80
2018,07,03,09,13,10.80
2018,07,03,09,14,10.80
2018,07,03,09,15,10.80
2018,07,03,09,16,10.70
2018,07,03,09,17,10.70
2018,07,03,09,18,10.70
2018,07,03,09,19,10.70
2018,07,03,09,20,10.70
2018,07,03,09,21,10.70
2018,07,03,09,22,10.80
2018,07,03,09,23,10.80
2018,07,03,09,24,10.80
2018,07,03,09,25,10.80
2018,07,03,09,26,10.80
2018,07,03,09,27,10.80
2018,07,03,09,28,10.80
2018,07,03,09,29,10.80
2018,07,03,09,30,10.80
2018,07,03,09,31,10.80
2018,07,03,09,32,10.80
2018,07,03,09,33,10.80
2018,07,03,09,34,10.80
2018,07,03,09,35,10.80
2018,07,03,09,36,10.80
2018,07,03,09,37,10.80
2018,07,03,09,38,10.80
2018,07,03,09,39,10.80
2018,07,03,09,40,10.80
2018,07,03,09,41,10.80
2018,07,03,09,42,10.80
2018,07,03,09,43,10.80
2018,07,03,09,44,10.80
2018,07,03,09,45,10.80
2018,07,03,09,46,10.80
2018,07,03,09,47,10.80
2018,07,03,09,48,10.80
2018,07,03,09,49,10.80
2018,07,03,09,50,10.80
2018,07,03,09,51,10.80
2018,07,03,09,52,10.80
2018,07,03,09,53,10.80
2018,07,03,09,54,10.80
2018,07,03,09,55,10.90
2018,07,03,09,56,10.90
2018,07,03,09,57,10.90
2018,07,03,09,58,10.90
2018,07,03,09,59,10.90
2018,07,03,10,00,10.90
2018,07,03,10,01,10.90
2018,07,03,10,02,10.90
2018,07,03,10,03,10.90
2018,07,03,10,04,10.90
2018,07,03,10,05,10.90
2018,07,03,10,06,10.90
2018,07,03,10,07,10.90
2018,07,03,10,08,10.90
2018,07,03,10,09,10.90
2018,07,03,10,10,10.90
2018,07,03,10,11,10.90
2018,07,03,10,12,10.90
2018,07,03,10,13,10.90
2018,07,03,10,14,10.90
2018,07,03,10,15,10.90
2018,07,03,10,16,10.90
2018,07,03,10,17,10.90
2018,07,03,10,18,10.90
2018,07,03,10,19,10.90
2018,07,03,10,20,10.90
2018,07,03,10,21,10.90
2018,07,03,10,22,10.90
2018,07,03,10,23,10.90
2018,07,03,10,24,10.90
2018,07,03,10,25,11.00
2018,07,03,10,26,11.00
2018,07,03,10,27,11.00
2018,07,03,10,28,11.00
2018,07,03,10,29,11.00
2018,07,03,10,30,11.00
2018,07,03,10,31,11.00
2018,07,03,10,32,11.00
2018,07,03,10,33,11.00
2018,07,03,10,34,11.00
2018,07,03,10,35,11.00
2018,07,03,10,36,11.00
2018,07,03,10,37,11.00
2018,07,03,10,38,11.00
2018,07,03,10,39,11.00
2018,07,03,10,40,11.00
2018,07,03,10,41,11.00
2018,07,03,10,42,11.00
2018,07,03,10,43,11.00
2018,07,03,10,44,11.00
2018,07,03,10,45,11.00
2018,07,03,10,46,11.10
2018,07,03,10,47,11.00
2018,07,03,10,48,11.10
2018,07,03,10,49,11.10
2018,07,03,10,50,11.10
2018,07,03,10,51,11.10
2018,07,03,10,52,11.10
2018,07,03,10,53,11.10
2018,07,03,10,54,11.20
2018,07,03,10,55,11.20
2018,07,03,10,56,11.40
2018,07,03,10,57,11.40
2018,07,03,10,58,11.50
2018,07,03,10,59,11.60
2018,07,03,11,00,11.60
2018,07,03,11,01,11.60
2018,07,03,11,02,11.60
2018,07,03,11,03,11.60
2018,07,03,11,04,11.60
2018,07,03,11,05,11.60
2018,07,03,11,06,11.60
2018,07,03,11,07,11.60
2018,07,03,11,08,11.60
2018,07,03,11,09,11.60
2018,07,03,11,10,11.70
2018,07,03,11,11,11.80
2018,07,03,11,12,11.90
2018,07,03,11,13,12.00
2018,07,03,11,14,12.10
2018,07,03,11,15,12.20
2018,07,03,11,16,12.30
2018,07,03,11,17,12.20
2018,07,03,11,18,12.10
2018,07,03,11,19,12.00
2018,07,03,11,20,11.90
2018,07,03,11,21,11.80
2018,07,03,11,22,11.70
2018,07,03,11,23,11.70
2018,07,03,11,24,11.70
2018,07,03,11,25,11.70
2018,07,03,11,26,11.60
2018,07,03,11,27,11.60
2018,07,03,11,28,11.70
2018,07,03,11,29,11.70
2018,07,03,11,30,11.80
2018,07,03,11,31,12.00
2018,07,03,11,32,12.20
2018,07,03,11,33,12.30
2018,07,03,11,34,12.30
2018,07,03,11,35,12.20
2018,07,03,11,36,12.20
2018,07,03,11,37,12.10
2018,07,03,11,38,12.10
2018,07,03,11,39,12.10
2018,07,03,11,40,12.10
2018,07,03,11,41,12.00
2018,07,03,11,42,12.00
2018,07,03,11,43,12.00
2018,07,03,11,44,12.00
2018,07,03,11,45,11.90
2018,07,03,11,46,11.90
2018,07,03,11,47,11.90
2018,07,03,11,48,11.90
2018,07,03,11,49,11.90
2018,07,03,11,50,12.00
2018,07,03,11,51,12.00
2018,07,03,11,52,12.10
2018,07,03,11,53,12.10
2018,07,03,11,54,12.00
2018,07,03,11,55,12.00
2018,07,03,11,56,11.90
2018,07,03,11,57,11.90
2018,07,03,11,58,11.90
2018,07,03,11,59,11.90
2018,07,03,12,00,11.90
2018,07,03,12,01,11.90
2018,07,03,12,02,11.90
2018,07,03,12,03,11.90
2018,07,03,12,04,11.90
2018,07,03,12,05,11.90
2018,07,03,12,06,11.90
2018,07,03,12,07,12.00
2018,07,03,12,08,12.10
2018,07,03,12,09,12.10
2018,07,03,12,10,12.10
2018,07,03,12,11,12.10
2018,07,03,12,12,12.10
2018,07,03,12,13,12.10
2018,07,03,12,14,12.10
2018,07,03,12,15,12.10
2018,07,03,12,16,12.10
2018,07,03,12,17,12.00
2018,07,03,12,18,12.00
2018,07,03,12,19,12.00
2018,07,03,12,20,11.90
2018,07,03,12,21,11.90
2018,07,03,12,22,11.90
2018,07,03,12,23,12.00
2018,07,03,12,24,12.00
2018,07,03,12,25,11.90
2018,07,03,12,26,11.90
2018,07,03,12,27,11.90
2018,07,03,12,28,11.80
2018,07,03,12,29,11.80
2018,07,03,12,30,11.80
2018,07,03,12,31,11.80
2018,07,03,12,32,11.70
2018,07,03,12,33,11.70
2018,07,03,12,34,11.70
2018,07,03,12,35,11.70
2018,07,03,12,36,11.70
2018,07,03,12,37,11.70
2018,07,03,12,38,11.70
2018,07,03,12,39,11.70
2018,07,03,12,40,11.70
2018,07,03,12,41,11.70
2018,07,03,12,42,11.70
2018,07,03,12,43,11.70
2018,07,03,12,44,11.70
2018,07,03,12,45,11.70
2018,07,03,12,46,11.70
2018,07,03,12,47,11.70
2018,07,03,12,48,11.70
2018,07,03,12,49,11.70
2018,07,03,12,50,11.70
2018,07,03,12,51,11.80
2018,07,03,12,52,11.80
2018,07,03,12,53,11.80
2018,07,03,12,54,11.80
2018,07,03,12,55,11.80
2018,07,03,12,56,11.90
2018,07,03,12,57,11.80
2018,07,03,12,58,11.80
2018,07,03,12,59,11.80
2018,07,03,13,00,11.90
2018,07,03,13,01,11.90
2018,07,03,13,02,11.90
2018,07,03,13,03,12.00
2018,07,03,13,04,12.00
2018,07,03,13,05,12.00
2018,07,03,13,06,12.00
2018,07,03,13,07,12.00
2018,07,03,13,08,12.00
2018,07,03,13,09,11.90
2018,07,03,13,10,11.90
2018,07,03,13,11,11.90
2018,07,03,13,12,11.90
2018,07,03,13,13,11.90
2018,07,03,13,14,11.90
2018,07,03,13,15,11.90
2018,07,03,13,16,11.90
2018,07,03,13,17,12.00
2018,07,03,13,18,12.00
2018,07,03,13,19,12.00
2018,07,03,13,20,12.00
2018,07,03,13,21,12.00
2018,07,03,13,22,12.00
2018,07,03,13,23,12.00
2018,07,03,13,24,12.00
2018,07,03,13,25,12.00
2018,07,03,13,26,12.00
2018,07,03,13,27,12.00
2018,07,03,13,28,12.10
2018,07,03,13,29,12.10
2018,07,03,13,30,12.10
2018,07,03,13,31,12.10
2018,07,03,13,32,12.10
2018,07,03,13,33,12.10
2018,07,03,13,34,12.20
2018,07,03,13,35,12.20
2018,07,03,13,36,12.20
2018,07,03,13,37,12.20
2018,07,03,13,38,12.20
2018,07,03,13,39,12.20
2018,07,03,13,40,12.20
2018,07,03,13,41,12.20
2018,07,03,13,42,12.10
2018,07,03,13,43,12.10
2018,07,03,13,44,12.10
2018,07,03,13,45,12.10
2018,07,03,13,46,12.10
2018,07,03,13,47,12.20
2018,07,03,13,48,12.10
2018,07,03,13,49,12.10
2018,07,03,13,50,12.10
2018,07,03,13,51,12.10
2018,07,03,13,52,12.10
2018,07,03,13,53,12.10
2018,07,03,13,54,12.10
2018,07,03,13,55,12.10
2018,07,03,13,56,12.10
2018,07,03,13,57,12.10
2018,07,03,13,58,12.10
2018,07,03,13,59,12.20
2018,07,03,14,00,12.20
2018,07,03,14,01,12.20
2018,07,03,14,02,12.20
2018,07,03,14,03,12.20
2018,07,03,14,04,12.30
2018,07,03,14,05,12.30
2018,07,03,14,06,12.30
2018,07,03,14,07,12.30
2018,07,03,14,08,12.30
2018,07,03,14,09,12.40
2018,07,03,14,10,12.40
2018,07,03,14,11,12.40
2018,07,03,14,12,12.40
2018,07,03,14,13,12.40
2018,07,03,14,14,12.40
2018,07,03,14,15,12.40
2018,07,03,14,16,12.40
2018,07,03,14,17,12.40
2018,07,03,14,18,12.40
2018,07,03,14,19,12.40
2018,07,03,14,20,12.40
2018,07,03,14,21,12.40
2018,07,03,14,22,12.40
2018,07,03,14,23,12.40
2018,07,03,14,24,12.40
2018,07,03,14,25,12.40
2018,07,03,14,26,12.40
2018,07,03,14,27,12.40
2018,07,03,14,28,12.50
2018,07,03,14,29,12.50
2018,07,03,14,30,12.50
2018,07,03,14,31,12.50
2018,07,03,14,32,12.50
2018,07,03,14,33,12.50
2018,07,03,14,34,12.50
2018,07,03,14,35,12.50
2018,07,03,14,36,12.50
2018,07,03,14,37,12.50
2018,07,03,14,38,12.60
2018,07,03,14,39,12.60
2018,07,03,14,40,12.60
2018,07,03,14,41,12.60
2018,07,03,14,42,12.60
2018,07,03,14,43,12.60
2018,07,03,14,44,12.60
2018,07,03,14,45,12.70
2018,07,03,14,46,12.70
2018,07,03,14,47,12.70
2018,07,03,14,48,12.70
2018,07,03,14,49,12.70
2018,07,03,14,50,12.80
2018,07,03,14,51,12.80
2018,07,03,14,52,12.80
2018,07,03,14,53,12.80
2018,07,03,14,54,12.80
2018,07,03,14,55,12.80
2018,07,03,14,56,12.80
2018,07,03,14,57,12.80
2018,07,03,14,58,12.80
2018,07,03,14,59,12.80
2018,07,03,15,00,12.80
2018,07,03,15,01,12.80
2018,07,03,15,02,12.90
2018,07,03,15,03,12.80
2018,07,03,15,04,12.80
2018,07,03,15,05,12.90
2018,07,03,15,06,12.90
2018,07,03,15,07,12.90
2018,07,03,15,08,12.90
2018,07,03,15,09,12.90
2018,07,03,15,10,12.90
2018,07,03,15,11,12.90
2018,07,03,15,12,13.00
2018,07,03,15,13,12.90
2018,07,03,15,14,12.90
2018,07,03,15,15,12.90
2018,07,03,15,16,12.90
2018,07,03,15,17,12.90
2018,07,03,15,18,12.90
2018,07,03,15,19,12.90
2018,07,03,15,20,12.90
2018,07,03,15,21,12.90
2018,07,03,15,22,12.90
2018,07,03,15,23,13.00
2018,07,03,15,24,13.00
2018,07,03,15,25,13.00
2018,07,03,15,26,13.00
2018,07,03,15,27,13.00
2018,07,03,15,28,13.10
2018,07,03,15,29,13.10
2018,07,03,15,30,13.10
2018,07,03,15,31,13.10
2018,07,03,15,32,13.10
2018,07,03,15,33,13.10
2018,07,03,15,34,13.20
2018,07,03,15,35,13.20
2018,07,03,15,36,13.30
2018,07,03,15,37,13.40
2018,07,03,15,38,13.50
2018,07,03,15,39,13.60
2018,07,03,15,40,13.60
2018,07,03,15,41,13.70
2018,07,03,15,42,13.70
2018,07,03,15,43,13.80
2018,07,03,15,44,13.80
2018,07,03,15,45,13.80
2018,07,03,15,46,13.90
2018,07,03,15,47,13.90
2018,07,03,15,48,13.90
2018,07,03,15,49,13.90
2018,07,03,15,50,14.00
2018,07,03,15,51,13.90
2018,07,03,15,52,13.90
2018,07,03,15,53,13.90
2018,07,03,15,54,13.90
2018,07,03,15,55,14.00
2018,07,03,15,56,14.00
2018,07,03,15,57,14.00
2018,07,03,15,58,14.00
2018,07,03,15,59,14.10
2018,07,03,16,00,14.10
2018,07,03,16,01,14.10
2018,07,03,16,02,14.20
2018,07,03,16,03,14.20
2018,07,03,16,04,14.30
2018,07,03,16,05,14.30
2018,07,03,16,06,14.40
2018,07,03,16,07,14.40
2018,07,03,16,08,14.40
2018,07,03,16,09,14.40
2018,07,03,16,10,14.40
2018,07,03,16,11,14.40
2018,07,03,16,12,14.50
2018,07,03,16,13,14.50
2018,07,03,16,14,14.60
2018,07,03,16,15,14.60
2018,07,03,16,16,14.60
2018,07,03,16,17,14.60
2018,07,03,16,18,14.60
2018,07,03,16,19,14.60
2018,07,03,16,20,14.50
2018,07,03,16,21,14.50
2018,07,03,16,22,14.50
2018,07,03,16,23,14.50
2018,07,03,16,24,14.60
2018,07,03,16,25,14.60
2018,07,03,16,26,14.60
2018,07,03,16,27,14.60
2018,07,03,16,28,14.60
2018,07,03,16,29,14.60
2018,07,03,16,30,14.60
2018,07,03,16,31,14.60
2018,07,03,16,32,14.70
2018,07,03,16,33,14.70
2018,07,03,16,34,14.80
2018,07,03,16,35,14.80
2018,07,03,16,36,14.90
2018,07,03,16,37,15.00
2018,07,03,16,38,15.10
2018,07,03,16,39,15.10
2018,07,03,16,40,15.10
2018,07,03,16,41,15.20
2018,07,03,16,42,15.20
2018,07,03,16,43,15.40
2018,07,03,16,44,15.40
2018,07,03,16,45,15.50
2018,07,03,16,46,15.60
2018,07,03,16,47,15.50
2018,07,03,16,48,15.40
2018,07,03,16,49,15.30
2018,07,03,16,50,15.20
2018,07,03,16,51,15.00
2018,07,03,16,52,14.80
2018,07,03,16,53,14.70
2018,07,03,16,54,14.60
2018,07,03,16,55,14.60
2018,07,03,16,56,14.60
2018,07,03,16,57,14.70
2018,07,03,16,58,14.80
2018,07,03,16,59,14.90
2018,07,03,17,00,14.90
2018,07,03,17,01,14.90
2018,07,03,17,02,14.90
2018,07,03,17,03,14.80
2018,07,03,17,04,14.80
2018,07,03,17,05,14.70
2018,07,03,17,06,14.70
2018,07,03,17,07,14.60
2018,07,03,17,08,14.60
2018,07,03,17,09,14.50
2018,07,03,17,10,14.50
2018,07,03,17,11,14.50
2018,07,03,17,12,14.50
2018,07,03,17,13,14.50
2018,07,03,17,14,14.60
2018,07,03,17,15,14.60
2018,07,03,17,16,14.60
2018,07,03,17,17,14.60
2018,07,03,17,18,14.60
2018,07,03,17,19,14.60